Location: Ferchesar
(52.6477°N, 12.4298°E)
Time: 22:33:05
(UTC+01:00)

TIGRISAT - Pass Details

Date: 23 October 2021
Orbit: 603 x 689 km, 97.7° (Epoch: 30 November)

Event Time Altitude Azimuth Distance (km) Brightness Sun altitude
Rises 19:27:35 0° 22° (NNE) 2,989 ? -14.2°
Reaches altitude 10° 19:30:10 10° 35° (NE) 2,057 ? -14.6°
Enters shadow 19:32:43 23° 67° (ENE) 1,377 ? -15.0°
Exits shadow 19:35:57 18° 132° (SE) 1,532 ? -15.5°
Drops below altitude 10° 19:37:33 10° 149° (SSE) 1,999 ? -15.8°
Sets 19:40:01 0° 162° (SSE) 2,887 ? -16.1°
